Regional Weather Roundup
Issued by NWS

Home | Current Version | Previous Version | Text Only | Print | Product List | Glossary Off
Versions: 1 2 3 4 5 6 7 8 9 10 11 12 13 14 15 16 17 18 19 20 21 22 23 24 25 26 27 28 29 30 31 32 33 34 35 36 37 38 39 40 41 42 43 44 45 46 47 48 49 50

000
ASUS43 KLMK 210310
RWRKY
KENTUCKY REGIONAL WEATHER ROUNDUP
NATIONAL WEATHER SERVICE LOUISVILLE KY
1000 PM EST MON FEB 20 2017

NOTE "FAIR" INDICATES FEW OR NO CLOUDS BELOW 12,000 FEET
WITH NO SIGNIFICANT WEATHER AND/OR OBSTRUCTIONS TO VISIBILITY.

KYZ001>023-026-027-061>063-070>075-210400-
WESTERN AND SOUTH CENTRAL KENTUCKY

CITY           SKY/WX    TMP DP  RH WIND       PRES   REMARKS
PADUCAH        CLOUDY    62  49  62 SE7       29.96F
HENDERSON      MOCLDY    54  45  71 CALM      30.00F
OWENSBORO      CLOUDY    59  48  67 SE5       30.02F
HOPKINSVILLE   PTCLDY    62  48  60 SE3       30.01F
BOWLING GREEN  CLOUDY    56  45  66 SE3       30.05F
GLASGOW        MOCLDY    54  46  73 CALM      30.07F
$$

KYZ024-025-028>034-038-045-046-053-210400-
NORTH CENTRAL KENTUCKY

CITY           SKY/WX    TMP DP  RH WIND       PRES   REMARKS
LOUISVILLE/SDF CLOUDY    60  42  51 E3        30.05F
LOUISVILLE/LOU CLOUDY    61  44  53 E3        30.06F
FORT KNOX      CLOUDY    57  43  59 SE7       30.04F
$$

KYZ035>037-039>044-047>052-055>060-089>105-210400-
NORTHEAST KENTUCKY

CITY           SKY/WX    TMP DP  RH WIND       PRES   REMARKS
LEXINGTON      PTCLDY    58  43  57 SE7       30.09F
COVINGTON      MOCLDY    56  42  59 E8        30.10S
FRANKFORT      PTCLDY    59  44  57 SE5       30.07F
$$

KYZ054-064>069-076>088-106>120-210400-
SOUTHEAST KENTUCKY

CITY           SKY/WX    TMP DP  RH WIND       PRES   REMARKS
JACKSON        CLOUDY    61  38  42 E6        30.12F
LONDON         CLOUDY    53  40  61 CALM      30.13R
SOMERSET       PTCLDY    54  41  62 CALM      30.11F
MIDDLESBORO    CLOUDY    47  43  85 CALM      30.16R
MONTICELLO     CLOUDY    49  44  83 W7        30.11F
$$





USA.gov is the U.S. government's official web portal to all federal, state and local government web resources and services.